Flag for Germany Weather past 2 weeks in Worms, Rhineland-Palatinate, Germany

Now
77 °F

Scattered clouds.


Feels Like: 79 °F
Forecast: 57 / 73 °F
Wind: 5 mph from West

Location: Baden Wurttemberg - Neuostheim

Current Time: Aug 29, 2014 at 4:29:46 PM

Latest Report: Aug 29, 2014 at 3:50 PM


Visibility: N/A

Pressure: 30.01 "Hg

Humidity: 47%

Dew point: 55 °F

Location of WormsLocation

Historic Weather in Worms — Graph

°F

Worms temperature yesterday

Maximum temperature yesterday: 75 °F (at 2:50 PM)
Minimum temperature yesterday: 54 °F (at 5:20 AM)
Average temperature yesterday: 67 °F

Past Weeks' High & Low Weather Summary

 TemperatureHumidityPressure
High75 °F (Aug 28, 2:50 PM)100% (Aug 19, 5:50 AM)30.15 "Hg (Aug 19, 5:50 AM)
Low48 °F (Aug 20, 5:50 AM)33% (Aug 21, 4:20 PM)29.65 "Hg (Aug 26, 5:50 AM)
Average63 °F68%29.97 "Hg
* Reported Aug 14 3:20 PM — Aug 29 3:20 PM, Worms, Weather by CustomWeather, © 2014

Note: Actual official high and low records may vary slightly from our data, if they occured in-between our weather recording intervals... More about our weather records

Advertising

Worms weather history for previous 24 hours

 ConditionsComfort  
Time TempWeatherWind HumidityBarometerVisibility
3:20 PM
Aug 29
75 °FBroken clouds.3 mph50%30.01 "HgN/A
2:50 PM75 °FScattered clouds.6 mph50%30.04 "HgN/A
2:20 PM75 °FPassing clouds.5 mph54%30.04 "HgN/A
1:50 PM73 °FBroken clouds.6 mph57%30.04 "HgN/A
1:20 PM73 °FBroken clouds.6 mph57%30.04 "HgN/A
12:50 PM72 °FScattered clouds.5 mph61%30.04 "HgN/A
12:20 PM72 °FScattered clouds.6 mph65%30.04 "HgN/A
11:50 AM68 °FScattered clouds.5 mph73%30.04 "HgN/A
11:20 AM70 °FBroken clouds.3 mph69%30.04 "HgN/A
10:50 AM66 °FBroken clouds.2 mph78%30.04 "HgN/A
10:20 AM66 °FBroken clouds.3 mph78%30.04 "HgN/A
9:50 AM66 °FPartly sunny.3 mph78%30.04 "HgN/A
9:20 AM64 °FScattered clouds.3 mph78%30.04 "HgN/A
8:50 AM64 °FScattered clouds.3 mph78%30.04 "HgN/A
8:20 AM64 °FPartly sunny.3 mph78%30.01 "HgN/A
7:50 AM64 °FPartly sunny.3 mph78%30.01 "HgN/A
7:20 AM63 °FPassing clouds.7 mph83%30.01 "HgN/A
6:50 AM63 °FPassing clouds.7 mph83%30.01 "HgN/A
6:20 AM64 °FPassing clouds.7 mph78%30.01 "HgN/A
5:50 AM64 °FPassing clouds.6 mph78%30.01 "HgN/A
5:20 AM64 °FPassing clouds.5 mph83%30.01 "HgN/A
9:20 PM
Aug 28
70 °FClear.3 mph69%30.01 "Hg10 mi
8:50 PM72 °FSunny.3 mph61%30.01 "Hg10 mi
7:50 PM73 °FPassing clouds.5 mph57%30.01 "HgN/A
7:20 PM73 °FPassing clouds.7 mph57%30.01 "HgN/A
6:50 PM73 °FPassing clouds.6 mph57%30.01 "HgN/A
6:20 PM73 °FPassing clouds.6 mph57%30.01 "HgN/A
5:50 PM75 °FPassing clouds.7 mph50%30.01 "HgN/A
5:20 PM75 °FPassing clouds.8 mph50%30.01 "HgN/A
4:50 PM75 °FPassing clouds.7 mph54%30.01 "HgN/A
4:20 PM75 °FScattered clouds.8 mph50%30.01 "HgN/A
Weather by CustomWeather, © 2014

See weather overviewHow to use our weather pages